GW3851 Weather Reports


time (UTC)temp
C
wind
direction
speed
KPH
gust
KPH
rain 1hr
cm
rain 24hr
cm
rain mn
cm
humidity
%
barometer
mb
20260505224415 8 0.0 0.0 0.00 0.00 0.00 80 1014.6
20260505223912 8 0.0 0.0 0.00 0.00 0.00 81 1014.6
20260505223409 8 0.0 0.0 0.00 0.00 0.00 81 1014.6
20260505222905 8 0.0 0.0 0.00 0.00 0.00 82 1015.1
20260505222402 8 0.0 0.0 0.00 0.00 0.00 81 1015.1
20260505221858 8 0.0 0.0 0.00 0.00 0.00 77 1014.6
20260505221355 8 0.0 0.0 0.00 0.00 0.00 76 1015.4
20260505220852 8 0.0 0.0 0.00 0.00 0.00 76 1015.4
20260505220349 9 0.0 0.0 0.00 0.00 0.00 76 1015.4
20260505215847 9 0.0 0.0 0.00 0.00 0.00 75 1015.4
20260505215344 10 0.0 0.0 0.00 0.00 0.00 74 1015.4
20260505214842 10 0.0 0.0 0.00 0.00 0.00 73 1015.1
20260505214340 10 0.0 0.0 0.00 0.00 0.00 72 1014.6
20260505213836 11 0.0 0.0 0.00 0.00 0.00 75 1014.6
20260505213335 11 0.0 0.0 0.00 0.00 0.00 75 1014.6
20260505212830 11 0.0 0.0 0.00 0.00 0.00 77 1014.6
20260505212327 11 0.0 0.0 0.00 0.00 0.00 80 1015.1
20260505211823 11 0.0 0.0 0.00 0.00 0.00 80 1015.1
20260505211321 11 0.0 0.0 0.00 0.00 0.00 82 1015.1
20260505210817 10 0.0 0.0 0.00 0.00 0.00 79 1015.4
20260505210314 10 0.0 0.0 0.00 0.00 0.00 79 1015.4
20260505205812 10 0.0 0.0 0.00 0.00 0.00 78 1015.4
20260505205310 10 0.0 0.0 0.00 0.00 0.00 75 1015.9
20260505204806 10 0.0 0.0 0.00 0.00 0.00 73 1015.9
20260505204304 10 0.0 0.0 0.00 0.00 0.00 70 1015.9
20260505203801 11 0.0 0.0 0.00 0.00 0.00 68 1016.3
20260505203258 11 0.0 0.0 0.00 0.00 0.00 68 1016.3
20260505202754 11 0.0 0.0 0.00 0.00 0.00 65 1015.9
20260505202250 12 0.0 0.0 0.00 0.00 0.00 59 1015.9
20260505201747 14 0.0 0.0 0.00 0.00 0.00 51 1015.4
20260505201244 14 0.0 0.0 0.00 0.00 0.00 51 1015.1
20260505200743 15 0.0 0.0 0.00 0.00 0.00 52 1014.6
20260505200240 15 0.0 0.0 0.00 0.00 0.00 56 1014.6
20260505195735 15 0.0 0.0 0.00 0.00 0.00 51 1015.1
20260505195233 15 0.0 0.0 0.00 0.00 0.00 49 1014.6
20260505194730 15 0.0 0.0 0.00 0.00 0.00 49 1015.1
20260505194227 15 0.0 0.0 0.00 0.00 0.00 49 1014.6
20260505193722 15 0.0 0.0 0.00 0.00 0.00 49 1014.6
20260505193219 15 0.0 0.0 0.00 0.00 0.00 50 1014.6
20260505192718 15 0.0 0.0 0.00 0.00 0.00 48 1014.6
20260505192215 15 0.0 0.0 0.00 0.00 0.00 48 1014.6
20260505191713 15 0.0 0.0 0.00 0.00 0.00 49 1014.6
20260505191211 15 0.0 0.0 0.00 0.00 0.00 51 1014.6
20260505190707 14 0.0 0.0 0.00 0.00 0.00 52 1014.6
20260505190202 13 0.0 0.0 0.00 0.00 0.00 53 1015.1
20260505185659 13 0.0 0.0 0.00 0.00 0.00 55 1015.1
20260505185155 13 0.0 0.0 0.00 0.00 0.00 55 1015.1
20260505184651 13 0.0 0.0 0.00 0.00 0.00 57 1015.1
20260505184148 13 0.0 0.0 0.00 0.00 0.00 57 1015.4
20260505183645 13 0.0 0.0 0.00 0.00 0.00 59 1015.1
20260505183143 12 0.0 0.0 0.00 0.00 0.00 61 1015.4
20260505182638 12 0.0 0.0 0.00 0.00 0.00 61 1015.4
20260505182136 12 0.0 0.0 0.00 0.00 0.00 61 1015.9
20260505181632 12 0.0 0.0 0.00 0.00 0.00 62 1015.9
20260505181129 12 0.0 0.0 0.00 0.00 0.00 66 1015.9
20260505180625 12 0.0 0.0 0.00 0.00 0.00 65 1015.9
20260505180123 12 0.0 0.0 0.00 0.00 0.00 66 1015.9
20260505175619 12 0.0 0.0 0.00 0.00 0.00 66 1015.9
20260505175115 12 0.0 0.0 0.00 0.00 0.00 72 1015.9
20260505174607 11 0.0 0.0 0.00 0.00 0.00 76 1015.9
20260505174103 11 0.0 0.0 0.00 0.00 0.00 73 1016.3
20260505173559 11 0.0 0.0 0.00 0.00 0.00 68 1015.9
20260505173056 11 0.0 0.0 0.00 0.00 0.00 69 1015.9
20260505172554 11 0.0 0.0 0.00 0.00 0.00 66 1015.9
20260505172050 11 0.0 0.0 0.00 0.00 0.00 67 1015.9
20260505171545 11 0.0 0.0 0.00 0.00 0.00 66 1015.9
20260505171042 11 0.0 0.0 0.00 0.00 0.00 66 1015.9
20260505170539 11 0.0 0.0 0.00 0.00 0.00 66 1015.9
20260505170035 11 0.0 0.0 0.00 0.00 0.00 65 1015.9
20260505165530 11 0.0 0.0 0.00 0.00 0.00 65 1015.9
20260505165026 11 0.0 0.0 0.00 0.00 0.00 66 1015.9
20260505164522 10 0.0 0.0 0.00 0.00 0.00 66 1015.9
20260505164020 10 0.0 0.0 0.00 0.00 0.00 66 1015.9
20260505163519 10 0.0 0.0 0.00 0.00 0.00 67 1015.9
20260505163015 10 0.0 0.0 0.00 0.00 0.00 68 1015.9
20260505162509 10 0.0 0.0 0.00 0.00 0.00 69 1015.9
20260505162006 10 0.0 0.0 0.00 0.00 0.00 69 1015.9
20260505161502 10 0.0 0.0 0.00 0.00 0.00 70 1015.9
20260505160959 10 0.0 0.0 0.00 0.00 0.00 71 1015.9
20260505160458 10 0.0 0.0 0.00 0.00 0.00 72 1015.9
20260505152928 8 0.0 0.0 0.00 0.00 0.00 77 1015.9
20260505152420 8 0.0 0.0 0.00 0.00 0.00 77 1015.9
20260505151919 8 0.0 0.0 0.00 0.00 0.00 77 1015.9
20260505151410 8 0.0 0.0 0.00 0.00 0.00 77 1015.9
20260505150907 8 0.0 0.0 0.00 0.00 0.00 77 1015.9
20260505150404 8 0.0 0.0 0.00 0.00 0.00 77 1015.9
20260505140328 8 0.0 0.0 0.00 0.00 0.00 75 1015.9
20260505130251 7 0.0 0.0 0.00 0.00 0.00 70 1015.4
20260505124736 7 0.0 0.0 0.00 0.00 0.00 70 1015.4
20260505124233 7 0.0 0.0 0.00 0.00 0.00 71 1015.4
20260505123729 7 0.0 0.0 0.00 0.00 0.00 70 1015.4
20260505123226 7 0.0 0.0 0.00 0.00 0.00 70 1015.4
20260505122722 7 0.0 0.0 0.00 0.00 0.00 70 1015.4
20260505122219 7 0.0 0.0 0.00 0.00 0.00 71 1015.9
20260505121710 7 0.0 0.0 0.00 0.00 0.00 71 1015.4
20260505121207 7 0.0 0.0 0.00 0.00 0.00 71 1015.9
20260505120703 7 0.0 0.0 0.00 0.00 0.00 71 1015.9
20260505120159 7 0.0 0.0 0.00 0.00 0.00 71 1015.9
20260505115653 7 0.0 0.0 0.00 0.00 0.00 71 1015.9
20260505115151 7 0.0 0.0 0.00 0.00 0.00 73 1015.9
20260505114648 7 0.0 0.0 0.00 0.00 0.00 72 1015.9
20260505114144 7 0.0 0.0 0.00 0.00 0.00 72 1015.9
20260505113640 7 0.0 0.0 0.00 0.00 0.00 71 1015.9
20260505113137 7 0.0 0.0 0.00 0.00 0.00 71 1016.3
20260505112633 7 0.0 0.0 0.00 0.00 0.00 71 1015.9
20260505112132 7 0.0 0.0 0.00 0.00 0.00 71 1016.3
20260505111631 7 0.0 0.0 0.00 0.00 0.00 69 1016.3
20260505111128 7 0.0 0.0 0.00 0.00 0.00 69 1016.3
20260505110624 7 0.0 0.0 0.00 0.00 0.00 70 1015.9
20260505110121 8 0.0 0.0 0.00 0.00 0.00 70 1016.3
20260505102057 8 0.0 0.0 0.00 0.00 0.00 63 1016.3
20260505101555 8 0.0 0.0 0.00 0.00 0.00 63 1016.3
20260505101051 8 0.0 0.0 0.00 0.00 0.00 63 1016.3
20260505100548 8 0.0 0.0 0.00 0.00 0.00 63 1016.3
20260505100045 8 0.0 0.0 0.00 0.00 0.00 63 1016.3
20260505095541 8 0.0 0.0 0.00 0.00 0.00 63 1016.3
20260505095038 8 0.0 0.0 0.00 0.00 0.00 63 1016.3
20260505094534 8 0.0 0.0 0.00 0.00 0.00 64 1016.3
20260505094030 8 0.0 0.0 0.00 0.00 0.00 64 1016.3
20260505093527 8 0.0 0.0 0.00 0.00 0.00 64 1016.3
20260505093024 8 0.0 0.0 0.00 0.00 0.00 61 1016.6
20260505092522 9 0.0 0.0 0.00 0.00 0.00 59 1016.3
20260505092020 9 0.0 0.0 0.00 0.00 0.00 59 1016.6
20260505091516 9 0.0 0.0 0.00 0.00 0.00 59 1016.6
20260505091015 9 0.0 0.0 0.00 0.00 0.00 59 1016.6
20260505090512 9 0.0 0.0 0.00 0.00 0.00 60 1016.6
20260505090010 9 0.0 0.0 0.00 0.00 0.00 59 1017.1
20260505085508 9 0.0 0.0 0.00 0.00 0.00 59 1016.6
20260505085006 9 0.0 0.0 0.00 0.00 0.00 59 1016.6
20260505084504 9 0.0 0.0 0.00 0.00 0.00 59 1016.6
20260505084001 9 0.0 0.0 0.00 0.00 0.00 59 1016.6
20260505083458 9 0.0 0.0 0.00 0.00 0.00 58 1017.1
20260505082954 9 0.0 0.0 0.00 0.00 0.00 58 1017.1
20260505082450 9 0.0 0.0 0.00 0.00 0.00 56 1017.1
20260505081947 9 0.0 0.0 0.00 0.00 0.00 57 1017.5
20260505081444 9 0.0 0.0 0.00 0.00 0.00 56 1017.1
20260505080941 9 0.0 0.0 0.00 0.00 0.00 57 1017.1
20260505080437 9 0.0 0.0 0.00 0.00 0.00 57 1017.1
20260505075932 9 0.0 0.0 0.00 0.00 0.00 58 1017.5
20260505075430 9 0.0 0.0 0.00 0.00 0.00 58 1017.5
20260505074927 9 0.0 0.0 0.00 0.00 0.00 57 1016.6
20260505074424 9 0.0 0.0 0.00 0.00 0.00 57 1016.6
20260505073921 9 0.0 0.0 0.00 0.00 0.00 57 1016.6
20260505073419 9 0.0 0.0 0.00 0.00 0.00 57 1016.6
20260505072916 9 0.0 0.0 0.00 0.00 0.00 57 1016.6
20260505072412 9 0.0 0.0 0.00 0.00 0.00 57 1016.6
20260505071908 9 0.0 0.0 0.00 0.00 0.00 57 1016.3
20260505071404 10 0.0 0.0 0.00 0.00 0.00 57 1016.6
20260505070903 10 0.0 0.0 0.00 0.00 0.00 57 1016.6
20260505070358 10 0.0 0.0 0.00 0.00 0.00 58 1016.6
20260505065854 10 0.0 0.0 0.00 0.00 0.00 57 1016.3
20260505065351 10 0.0 0.0 0.00 0.00 0.00 57 1016.3
20260505064848 10 0.0 0.0 0.00 0.00 0.00 57 1016.6
20260505064345 10 0.0 0.0 0.00 0.00 0.00 57 1016.6
20260505063844 10 0.0 0.0 0.00 0.00 0.00 57 1016.6
20260505063339 10 0.0 0.0 0.00 0.00 0.00 57 1016.6
20260505062836 10 0.0 0.0 0.00 0.00 0.00 56 1017.1
20260505062333 10 0.0 0.0 0.00 0.00 0.00 56 1017.1
20260505061830 10 0.0 0.0 0.00 0.00 0.00 56 1017.1
20260505061328 10 0.0 0.0 0.00 0.00 0.00 56 1017.1
20260505060825 10 0.0 0.0 0.00 0.00 0.00 57 1017.1
20260505060322 10 0.0 0.0 0.00 0.00 0.00 56 1017.5
20260505055818 10 0.0 0.0 0.00 0.00 0.00 56 1017.1
20260505055314 10 0.0 0.0 0.00 0.00 0.00 56 1017.1
20260505054812 10 0.0 0.0 0.00 0.00 0.00 55 1016.6
20260505054309 10 0.0 0.0 0.00 0.00 0.00 54 1017.5
20260505053807 10 0.0 0.0 0.00 0.00 0.00 53 1017.5
20260505053304 10 0.0 0.0 0.00 0.00 0.00 53 1017.5
20260505052801 10 0.0 0.0 0.00 0.00 0.00 53 1017.5
20260505052257 10 0.0 0.0 0.00 0.00 0.00 51 1017.5
20260505051754 10 0.0 0.0 0.00 0.00 0.00 51 1017.5
20260505051252 10 0.0 0.0 0.00 0.00 0.00 50 1018.0
20260505050750 11 0.0 0.0 0.00 0.00 0.00 50 1018.0
20260505050249 11 0.0 0.0 0.00 0.00 0.00 50 1017.5
20260505041717 11 0.0 0.0 0.00 0.00 0.00 48 1017.1
20260505041209 11 0.0 0.0 0.00 0.00 0.00 47 1017.5
20260505040707 11 0.0 0.0 0.00 0.00 0.00 48 1017.5
20260505040204 11 0.0 0.0 0.00 0.00 0.00 48 1017.5
20260505035701 11 0.0 0.0 0.00 0.00 0.00 48 1017.5
20260505035156 11 0.0 0.0 0.00 0.00 0.00 48 1017.5
20260505034652 11 0.0 0.0 0.00 0.00 0.00 48 1017.1
20260505034150 11 0.0 0.0 0.00 0.00 0.00 48 1017.5
20260505033646 11 0.0 0.0 0.00 0.00 0.00 48 1017.5
20260505033145 11 0.0 0.0 0.00 0.00 0.00 48 1017.1
20260505032643 12 0.0 0.0 0.00 0.00 0.00 48 1017.1
20260505032138 12 0.0 0.0 0.00 0.00 0.00 48 1017.1
20260505031636 12 0.0 0.0 0.00 0.00 0.00 48 1017.1
20260505031132 12 0.0 0.0 0.00 0.00 0.00 47 1017.1
20260505030629 12 0.0 0.0 0.00 0.00 0.00 47 1017.1
20260505030125 12 0.0 0.0 0.00 0.00 0.00 47 1017.1
20260505025620 12 0.0 0.0 0.00 0.00 0.00 47 1017.1
20260505025119 12 0.0 0.0 0.00 0.00 0.00 46 1016.6
20260505024616 12 0.0 0.0 0.00 0.00 0.00 45 1017.1
20260505024113 12 0.0 0.0 0.00 0.00 0.00 45 1016.6
20260505023611 12 0.0 0.0 0.00 0.00 0.00 44 1016.6
20260505023108 13 0.0 0.0 0.00 0.00 0.00 44 1016.6
20260505022605 13 0.0 0.0 0.00 0.00 0.00 43 1016.6
20260505022102 13 0.0 0.0 0.00 0.00 0.00 42 1016.6
20260505021559 13 0.0 0.0 0.00 0.00 0.00 41 1016.6
20260505021056 13 0.0 0.0 0.00 0.00 0.00 41 1016.6
20260505020555 13 0.0 0.0 0.00 0.00 0.00 41 1017.1
20260505020053 13 0.0 0.0 0.00 0.00 0.00 40 1016.6
20260505015550 13 0.0 0.0 0.00 0.00 0.00 39 1017.1
20260505015046 13 0.0 0.0 0.00 0.00 0.00 38 1017.1
20260505014543 14 0.0 0.0 0.00 0.00 0.00 38 1017.1
20260505014041 14 0.0 0.0 0.00 0.00 0.00 36 1017.1
20260505013538 14 0.0 0.0 0.00 0.00 0.00 36 1016.6
20260505013035 15 0.0 0.0 0.00 0.00 0.00 36 1017.1
20260505012533 15 0.0 0.0 0.00 0.00 0.00 35 1016.6
20260505012030 15 0.0 0.0 0.00 0.00 0.00 35 1016.6
20260505011525 15 0.0 0.0 0.00 0.00 0.00 35 1016.6
20260505011023 15 0.0 0.0 0.00 0.00 0.00 35 1016.6
20260505010518 15 0.0 0.0 0.00 0.00 0.00 35 1016.6
20260505010015 15 0.0 0.0 0.00 0.00 0.00 35 1016.6
20260505005511 15 0.0 0.0 0.00 0.00 0.00 35 1016.6
20260505005009 16 0.0 0.0 0.00 0.00 0.00 35 1016.6
20260505004506 16 0.0 0.0 0.00 0.00 0.00 35 1016.6
20260505004002 16 0.0 0.0 0.00 0.00 0.00 36 1016.6
20260505003459 16 0.0 0.0 0.00 0.00 0.00 36 1016.6
20260505002955 16 0.0 0.0 0.00 0.00 0.00 36 1016.6
20260505002452 16 0.0 0.0 0.00 0.00 0.00 37 1017.1
20260505001950 16 0.0 0.0 0.00 0.00 0.00 36 1017.1
20260505001447 16 0.0 0.0 0.00 0.00 0.00 36 1017.1
20260505000944 16 0.0 0.0 0.00 0.00 0.00 36 1017.1
20260505000442 17 0.0 0.0 0.00 0.00 0.00 36 1017.1
20260504235939 17 0.0 0.0 0.00 0.00 0.00 36 1017.1
20260504235436 17 0.0 0.0 0.00 0.00 0.00 35 1017.1
20260504234932 17 0.0 0.0 0.00 0.00 0.00 35 1017.1
20260504234430 17 0.0 0.0 0.00 0.00 0.00 34 1017.1
20260504233926 17 0.0 0.0 0.00 0.00 0.00 34 1017.1
20260504233422 17 0.0 0.0 0.00 0.00 0.00 33 1017.5
20260504232919 17 0.0 0.0 0.00 0.00 0.00 32 1017.5
20260504232416 17 0.0 0.0 0.00 0.00 0.00 31 1017.1
20260504231913 18 0.0 0.0 0.00 0.00 0.00 30 1017.1
20260504231409 18 0.0 0.0 0.00 0.00 0.00 30 1017.5
20260504230906 18 0.0 0.0 0.00 0.00 0.00 29 1017.1
20260504230403 18 0.0 0.0 0.00 0.00 0.00 28 1017.1
20260504225903 18 0.0 0.0 0.00 0.00 0.00 28 1016.6
20260504225358 18 0.0 0.0 0.00 0.00 0.00 28 1016.6
20260504224856 18 0.0 0.0 0.00 0.00 0.00 28 1017.1